2022/12/23 00:00:00,60.4,-6.0
2022/12/23 00:10:00,60.8,-6.0
2022/12/23 00:20:00,61.1,-6.3
2022/12/23 00:30:00,61.1,-6.2
2022/12/23 00:40:00,59.2,-6.0
2022/12/23 00:50:00,58.5,-6.4
2022/12/23 01:00:00,58.5,-6.7
2022/12/23 01:10:00,58.3,-7.0
2022/12/23 01:20:00,58.4,-6.8
2022/12/23 01:30:00,58.2,-7.2
2022/12/23 01:40:00,58.7,-7.1
2022/12/23 01:50:00,59.6,-6.8
2022/12/23 02:00:00,61.1,-7.0
2022/12/23 02:10:00,63.4,-7.2
2022/12/23 02:20:00,65.1,-7.8
2022/12/23 02:30:00,66.1,-7.1
2022/12/23 02:40:00,66.9,-6.7
2022/12/23 02:50:00,68.0,-6.5
2022/12/23 03:00:00,69.0,-6.8
2022/12/23 03:10:00,69.4,-6.9
2022/12/23 03:20:00,70.1,-6.8
2022/12/23 03:30:00,70.8,-6.9
2022/12/23 03:40:00,71.5,-6.7
2022/12/23 03:50:00,71.4,-6.5
2022/12/23 04:00:00,71.3,-6.6
2022/12/23 04:10:00,72.1,-6.8
2022/12/23 04:20:00,72.8,-6.7
2022/12/23 04:30:00,73.0,-6.6
2022/12/23 04:40:00,73.3,-6.8
2022/12/23 04:50:00,73.4,-6.7
2022/12/23 05:00:00,73.4,-6.8
2022/12/23 05:10:00,73.6,-7.1
2022/12/23 05:20:00,73.8,-7.3
2022/12/23 05:30:00,74.0,-7.4
2022/12/23 05:40:00,73.8,-6.7
2022/12/23 05:50:00,73.4,-7.2
2022/12/23 06:00:00,73.8,-6.8
2022/12/23 06:10:00,75.0,-7.1
2022/12/23 06:20:00,75.4,-7.2
2022/12/23 06:30:00,76.8,-7.1
2022/12/23 06:40:00,77.5,-7.0
2022/12/23 06:50:00,77.9,-7.1
2022/12/23 07:00:00,78.0,-7.3
2022/12/23 07:10:00,78.1,-6.9
2022/12/23 07:20:00,77.9,-7.1
2022/12/23 07:30:00,77.8,-6.7
2022/12/23 07:40:00,77.7,-6.9
2022/12/23 07:50:00,77.5,-6.9
2022/12/23 08:00:00,77.8,-6.5
2022/12/23 08:10:00,77.4,-7.0
2022/12/23 08:20:00,77.2,-6.4
2022/12/23 08:30:00,76.9,-7.0
2022/12/23 08:40:00,77.1,-6.2
2022/12/23 08:50:00,77.7,-6.4
2022/12/23 09:00:00,78.0,-6.2
2022/12/23 09:10:00,78.1,-6.5
2022/12/23 09:20:00,78.6,-6.7
2022/12/23 09:30:00,79.0,-6.2
2022/12/23 09:40:00,79.7,-5.5
2022/12/23 09:50:00,80.0,-5.9
2022/12/23 10:00:00,80.5,-5.4
2022/12/23 10:10:00,80.9,-4.8
2022/12/23 10:20:00,80.8,-4.8
2022/12/23 10:30:00,80.7,-4.9
2022/12/23 10:40:00,80.6,-5.6
2022/12/23 10:50:00,81.1,-5.9
2022/12/23 11:00:00,81.4,-5.7
2022/12/23 11:10:00,81.3,-4.4
2022/12/23 11:20:00,80.9,-4.8
2022/12/23 11:30:00,80.8,-4.9
2022/12/23 11:40:00,80.6,-5.1
2022/12/23 11:50:00,80.5,-5.2
2022/12/23 12:00:00,80.5,-5.1
2022/12/23 12:10:00,80.2,-4.8
2022/12/23 12:20:00,80.2,-4.4
2022/12/23 12:30:00,80.1,-5.2
2022/12/23 12:40:00,80.4,-5.7
2022/12/23 12:50:00,80.8,-4.8
2022/12/23 13:00:00,81.1,-4.7
2022/12/23 13:10:00,80.9,-4.6
2022/12/23 13:20:00,78.7,-4.8
2022/12/23 13:30:00,78.9,-6.0
2022/12/23 13:40:00,79.7,-5.8
2022/12/23 13:50:00,80.5,-5.6
2022/12/23 14:00:00,81.0,-6.2
2022/12/23 14:10:00,81.6,-6.1
2022/12/23 14:20:00,82.0,-5.6
2022/12/23 14:30:00,82.1,-5.4
2022/12/23 14:40:00,82.1,-5.8
2022/12/23 14:50:00,82.0,-5.7
2022/12/23 15:00:00,81.9,-5.3
2022/12/23 15:10:00,81.8,-5.9
2022/12/23 15:20:00,82.6,-5.6
2022/12/23 15:30:00,83.0,-6.1
2022/12/23 15:40:00,83.5,-6.7
2022/12/23 15:50:00,83.8,-6.0
2022/12/23 16:00:00,84.2,-6.3
2022/12/23 16:10:00,84.5,-6.3
2022/12/23 16:20:00,85.2,-6.2
2022/12/23 16:30:00,85.8,-6.1
2022/12/23 16:40:00,86.0,-6.1
2022/12/23 16:50:00,85.9,-6.4
2022/12/23 17:00:00,86.5,-6.4
2022/12/23 17:10:00,86.6,-6.3
2022/12/23 17:20:00,86.6,-6.1
2022/12/23 17:30:00,86.6,-6.2
2022/12/23 17:40:00,86.3,-6.3
2022/12/23 17:50:00,86.3,-6.1
2022/12/23 18:00:00,86.7,-6.2
2022/12/23 18:10:00,87.1,-6.3
2022/12/23 18:20:00,87.1,-6.4
2022/12/23 18:30:00,87.4,-6.0
2022/12/23 18:40:00,88.5,-6.0
2022/12/23 18:50:00,90.2,-6.3
2022/12/23 19:00:00,90.0,-6.3
2022/12/23 19:10:00,90.1,-5.8
2022/12/23 19:20:00,90.1,-5.8
2022/12/23 19:30:00,89.9,-6.0
2022/12/23 19:40:00,89.6,-6.0
2022/12/23 19:50:00,88.9,-5.8
2022/12/23 20:00:00,88.7,-5.6
2022/12/23 20:10:00,89.1,-5.7
2022/12/23 20:20:00,88.6,-6.0
2022/12/23 20:30:00,88.8,-5.7
2022/12/23 20:40:00,88.5,-6.0
2022/12/23 20:50:00,88.1,-6.0
2022/12/23 21:00:00,88.2,-5.5
2022/12/23 21:10:00,87.7,-5.8
2022/12/23 21:20:00,87.9,-5.6
2022/12/23 21:30:00,88.0,-5.6
2022/12/23 21:40:00,87.8,-5.6
2022/12/23 21:50:00,87.5,-5.7
2022/12/23 22:00:00,87.1,-5.7
2022/12/23 22:10:00,86.8,-6.4
2022/12/23 22:20:00,86.4,-7.1
2022/12/23 22:30:00,85.9,-7.3
2022/12/23 22:40:00,85.6,-6.8
2022/12/23 22:50:00,85.3,-6.4
2022/12/23 23:00:00,85.0,-6.2
2022/12/23 23:10:00,85.0,-6.2
2022/12/23 23:20:00,85.0,-5.9
2022/12/23 23:30:00,84.9,-5.7
2022/12/23 23:40:00,85.1,-5.6
2022/12/23 23:50:00,85.8,-5.5
